When you browse on this site, cookies collect data to enhance your experience and personalize the content and advertising you see.
Visit our Privacy Policy to learn more. By continuing to use the site, you agree to this use of cookies and data.
  • In Switzerland
  • List of Countries
  • For 7 days
  • Water Temperature
  • Satellite Maps
  • Weather Map
  • Weather Widgets
  • user-avatar
    Login

    Hourly Weather Gorbunovka

    Today, 16 February, Saturday

    Time Temperature Precipitation Wind Pressure Humidity
    00:00 -11°C° 0.4 mm 6 mps 731 mmHg 92%
    01:00 -11°C° 0.4 mm 6 mps 730 mmHg 92%
    02:00 -10°C° 0.2 mm 6 mps 730 mmHg 92%
    03:00 -10°C° 0.2 mm 6 mps 729 mmHg 92%
    04:00 -9°C° 0 mm 4 mps 729 mmHg 93%
    05:00 -8°C° 0.1 mm 5 mps 729 mmHg 93%
    06:00 -7°C° 0.1 mm 5 mps 728 mmHg 93%
    07:00 -6°C° 0.1 mm 5 mps 728 mmHg 93%
    08:00 -5°C° 0.2 mm 5 mps 728 mmHg 93%
    09:00 -4°C° 0.2 mm 5 mps 729 mmHg 93%
    10:00 -2°C° 0.2 mm 5 mps 729 mmHg 93%
    11:00 -2°C° 0.1 mm 5 mps 729 mmHg 94%
    12:00 -2°C° 0.1 mm 4 mps 729 mmHg 95%
    13:00 -2°C° 0.1 mm 4 mps 729 mmHg 96%
    14:00 -2°C° 0.1 mm 4 mps 729 mmHg 95%
    15:00 -2°C° 0.1 mm 4 mps 729 mmHg 94%
    16:00 -1°C° 0.1 mm 3 mps 729 mmHg 93%
    17:00 -2°C° 0 mm 3 mps 730 mmHg 93%
    18:00 -4°C° 0 mm 3 mps 730 mmHg 94%
    19:00 -4°C° 0 mm 2 mps 730 mmHg 94%
    20:00 -5°C° 0 mm 2 mps 730 mmHg 95%
    21:00 -6°C° 0 mm 2 mps 730 mmHg 95%
    22:00 -6°C° 0 mm 2 mps 730 mmHg 96%
    23:00 -6°C° 0 mm 2 mps 730 mmHg 96%

    Tomorrow, 17 February, Sunday

    Time Temperature Precipitation Wind Pressure Humidity
    00:00 -7°C° 0 mm 2 mps 730 mmHg 97%
    01:00 -7°C° 0 mm 2 mps 730 mmHg 97%
    02:00 -6°C° 0.1 mm 2 mps 730 mmHg 97%
    03:00 -5°C° 0.1 mm 2 mps 731 mmHg 97%
    04:00 -4°C° 0.1 mm 2 mps 731 mmHg 97%
    05:00 -4°C° 0 mm 2 mps 730 mmHg 97%
    06:00 -4°C° 0 mm 2 mps 730 mmHg 96%
    07:00 -4°C° 0 mm 2 mps 730 mmHg 96%
    08:00 -4°C° 0 mm 2 mps 730 mmHg 96%
    09:00 -4°C° 0 mm 2 mps 730 mmHg 96%
    10:00 -3°C° 0 mm 2 mps 729 mmHg 95%
    11:00 -4°C° 0.1 mm 3 mps 729 mmHg 93%
    12:00 -4°C° 0.1 mm 4 mps 728 mmHg 91%
    13:00 -4°C° 0.1 mm 5 mps 728 mmHg 88%
    14:00 -5°C° 0 mm 5 mps 727 mmHg 88%
    15:00 -5°C° 0 mm 5 mps 727 mmHg 88%
    16:00 -5°C° 0 mm 5 mps 726 mmHg 88%
    17:00 -6°C° 0 mm 5 mps 725 mmHg 89%
    18:00 -6°C° 0 mm 5 mps 725 mmHg 90%
    19:00 -7°C° 0 mm 5 mps 724 mmHg 91%
    20:00 -7°C° 0 mm 5 mps 723 mmHg 90%
    21:00 -8°C° 0 mm 5 mps 722 mmHg 90%
    22:00 -9°C° 0 mm 6 mps 721 mmHg 89%
    23:00 -9°C° 0.3 mm 6 mps 721 mmHg 90%

    Day after tomorrow, 18 February, Monday

    Time Temperature Precipitation Wind Pressure Humidity
    00:00 -9°C° 0.3 mm 6 mps 720 mmHg 92%
    01:00 -9°C° 0.3 mm 6 mps 719 mmHg 93%
    02:00 -8°C° 0.4 mm 5 mps 719 mmHg 93%
    03:00 -8°C° 0.4 mm 5 mps 718 mmHg 94%
    04:00 -8°C° 0.4 mm 4 mps 718 mmHg 94%
    05:00 -9°C° 0.3 mm 4 mps 718 mmHg 94%
    06:00 -8°C° 0.3 mm 3 mps 718 mmHg 95%
    07:00 -7°C° 0.3 mm 2 mps 718 mmHg 96%
    08:00 -6°C° 0.3 mm 2 mps 718 mmHg 96%
    09:00 -6°C° 0.3 mm 2 mps 718 mmHg 96%
    10:00 -4°C° 0.3 mm 1 mps 718 mmHg 96%
    11:00 -5°C° 0.3 mm 2 mps 719 mmHg 95%
    12:00 -5°C° 0.3 mm 2 mps 719 mmHg 94%
    13:00 -6°C° 0.3 mm 3 mps 719 mmHg 93%
    14:00 -7°C° 0.2 mm 4 mps 720 mmHg 93%
    15:00 -7°C° 0.2 mm 4 mps 720 mmHg 92%
    16:00 -7°C° 0.2 mm 5 mps 721 mmHg 92%
    17:00 -7°C° 0.2 mm 5 mps 722 mmHg 92%
    18:00 -8°C° 0.2 mm 6 mps 722 mmHg 92%
    19:00 -8°C° 0.2 mm 6 mps 723 mmHg 92%
    20:00 -8°C° 0.2 mm 6 mps 724 mmHg 92%
    21:00 -8°C° 0.2 mm 6 mps 725 mmHg 91%
    22:00 -8°C° 0.2 mm 7 mps 725 mmHg 91%
    23:00 -8°C° 0.2 mm 7 mps 726 mmHg 91%

    19 February, Tuesday

    Time Temperature Precipitation Wind Pressure Humidity
    00:00 -8°C° 0.2 mm 7 mps 727 mmHg 91%
    01:00 -8°C° 0.2 mm 8 mps 728 mmHg 91%
    02:00 -11°C° 0.1 mm 8 mps 729 mmHg 89%
    03:00 -12°C° 0.1 mm 9 mps 730 mmHg 88%
    04:00 -15°C° 0.1 mm 9 mps 732 mmHg 86%
    05:00 -16°C° 0 mm 8 mps 733 mmHg 86%
    06:00 -17°C° 0 mm 7 mps 734 mmHg 85%
    07:00 -18°C° 0 mm 6 mps 735 mmHg 85%
    08:00 -18°C° 0 mm 6 mps 736 mmHg 83%
    09:00 -20°C° 0 mm 6 mps 737 mmHg 81%
    10:00 -20°C° 0 mm 6 mps 738 mmHg 79%
    11:00 -18°C° 0 mm 6 mps 738 mmHg 79%
    12:00 -17°C° 0 mm 5 mps 739 mmHg 79%
    13:00 -15°C° 0 mm 5 mps 739 mmHg 79%
    14:00 -15°C° 0 mm 4 mps 739 mmHg 82%
    15:00 -15°C° 0 mm 4 mps 740 mmHg 84%
    16:00 -14°C° 0 mm 3 mps 740 mmHg 87%
    17:00 -14°C° 0 mm 3 mps 740 mmHg 87%
    18:00 -14°C° 0 mm 3 mps 740 mmHg 87%
    19:00 -14°C° 0 mm 3 mps 740 mmHg 87%
    20:00 -15°C° 0 mm 4 mps 740 mmHg 86%
    21:00 -14°C° 0 mm 4 mps 740 mmHg 85%
    22:00 -14°C° 0 mm 5 mps 740 mmHg 84%
    23:00 -13°C° 0.1 mm 5 mps 740 mmHg 86%

    20 February, Wednesday

    Time Temperature Precipitation Wind Pressure Humidity
    00:00 -13°C° 0.1 mm 5 mps 739 mmHg 88%
    01:00 -13°C° 0.1 mm 5 mps 739 mmHg 90%
    02:00 -13°C° 0 mm 5 mps 739 mmHg 91%
    03:00 -12°C° 0 mm 4 mps 739 mmHg 91%
    04:00 -12°C° 0 mm 4 mps 739 mmHg 92%
    05:00 -12°C° 0 mm 4 mps 739 mmHg 92%
    06:00 -12°C° 0 mm 4 mps 739 mmHg 93%
    07:00 -12°C° 0 mm 4 mps 739 mmHg 93%
    08:00 -12°C° 0 mm 4 mps 739 mmHg 93%
    09:00 -12°C° 0 mm 4 mps 739 mmHg 93%
    10:00 -12°C° 0 mm 4 mps 739 mmHg 93%
    11:00 -13°C° 0 mm 5 mps 739 mmHg 92%
    12:00 -12°C° 0 mm 5 mps 739 mmHg 90%
    13:00 -11°C° 0 mm 6 mps 739 mmHg 89%
    14:00 -10°C° 0 mm 6 mps 738 mmHg 87%
    15:00 -10°C° 0 mm 6 mps 738 mmHg 85%
    16:00 -9°C° 0 mm 6 mps 738 mmHg 83%
    17:00 -9°C° 0 mm 6 mps 737 mmHg 83%
    18:00 -10°C° 0 mm 6 mps 737 mmHg 84%
    19:00 -10°C° 0 mm 6 mps 737 mmHg 84%
    20:00 -10°C° 0 mm 6 mps 737 mmHg 84%
    21:00 -12°C° 0 mm 7 mps 737 mmHg 83%
    22:00 -12°C° 0 mm 7 mps 737 mmHg 83%
    23:00 -13°C° 0 mm 7 mps 736 mmHg 84%

    21 February, Thursday

    Time Temperature Precipitation Wind Pressure Humidity
    00:00 -13°C° 0 mm 7 mps 736 mmHg 85%
    01:00 -14°C° 0 mm 7 mps 736 mmHg 86%
    02:00 -14°C° 0 mm 7 mps 736 mmHg 87%
    03:00 -14°C° 0 mm 7 mps 736 mmHg 89%
    04:00 -14°C° 0 mm 7 mps 736 mmHg 90%
    05:00 -14°C° 0.1 mm 7 mps 736 mmHg 90%
    06:00 -14°C° 0.1 mm 7 mps 735 mmHg 90%
    07:00 -14°C° 0.1 mm 7 mps 735 mmHg 90%
    08:00 -13°C° 0 mm 7 mps 735 mmHg 90%
    09:00 -13°C° 0 mm 7 mps 735 mmHg 90%
    10:00 -13°C° 0 mm 7 mps 735 mmHg 90%
    11:00 -12°C° 0 mm 7 mps 735 mmHg 90%
    12:00 -12°C° 0 mm 7 mps 735 mmHg 90%
    13:00 -11°C° 0 mm 7 mps 734 mmHg 90%
    14:00 -11°C° 0 mm 7 mps 734 mmHg 89%
    15:00 -9°C° 0 mm 7 mps 734 mmHg 88%
    16:00 -9°C° 0 mm 7 mps 734 mmHg 87%
    17:00 -9°C° 0.1 mm 7 mps 734 mmHg 88%
    18:00 -9°C° 0.1 mm 7 mps 734 mmHg 88%
    19:00 -9°C° 0.1 mm 7 mps 733 mmHg 88%
    20:00 -9°C° 0.1 mm 7 mps 733 mmHg 89%
    21:00 -8°C° 0.1 mm 7 mps 733 mmHg 89%
    22:00 -8°C° 0.1 mm 7 mps 733 mmHg 89%
    23:00 -8°C° 0 mm 6 mps 733 mmHg 90%
    Show more